Content
SEND FEEDBACK

Daily
Averages
Monthly
Summary
French Polynesia

PAPEETE, FRENCH POLYNESIA


Home > Oceania > French Polynesia
Elevation: 2 meters     Latitude: 17 33S     Longitude: 149 36W

WEATHER
 
SELECT A DAY
Number of Records: 207,916;   Date Range: 6/30/96 - 7/11/14
 
SHARE

PRINT THIS DATA

[ ← Previous Day ]
WEATHER ALMANAC - 10 JANUARY, 2013
[ Next Day → ]
[ °F ]   °C
Weather ElementAverageHighLow
Temperature27.6 °C31 °C (12:00 pm)25 °C (2:30 am)
Dewpoint21.7 °C23.3 °C (2:00 pm)20 °C (9:30 pm)
Humidity69.7 %79 % (7:30 am)53 % (11:00 am)
Barometer1009.5 hPa1010.8 hPa (11:00 pm)1008.1 hPa (1:30 am)
Wind Speed7.4 km/h25.9 km/h (3:00 pm)
Weather ElementAverage
Visibility12.1 km
Wind DirectionE (94.2 °)

Weather ElementTotal
Precipitation---
Cooling Degree Days9.7 (Base 18.3)
Growing Degree Days18 (Base 10)
Averaged from 55 records on 10 January, 2013
WEATHER CONDITIONS BREAKOUT
WIND DIRECTION BREAKOUT
WEATHER BY HOUR - 10 JANUARY, 2013
[ °F ]   °C
Local TimeTemperatureDewpointHumidityBarometerVisibilityWind DirectionWind SpeedGust SpeedPrecipitationEventsConditions
12:30 AM26 °C22 °C78 %1009.1 hPa10 kmEast (100°)5.6 km/hScattered Clouds
1:00 AM26 °C21 °C74 %1009.1 hPa10 kmVariable5.6 km/hPartly Cloudy
1:30 AM26 °C22 °C78 %1008.1 hPa10 kmEast (100°)5.6 km/hPartly Cloudy
2:00 AM25.6 °C21.7 °C72 %1008.8 hPa19.3 kmESE (110°)10.8 km/hScattered Clouds
2:00 AM26 °C21 °C74 %1008.1 hPa10 kmESE (110°)5.6 km/hPartly Cloudy
2:30 AM25 °C21 °C78 %1008.1 hPa10 kmEast (100°)5.6 km/hPartly Cloudy
3:00 AM25 °C21 °C78 %1008.1 hPa10 kmEast (100°)5.6 km/hPartly Cloudy
3:30 AM25 °C21 °C78 %1008.1 hPa10 kmEast (100°)5.6 km/hPartly Cloudy
4:00 AM25 °C21 °C78 %1008.1 hPa10 kmEast (100°)5.6 km/hMostly Cloudy
4:30 AM26 °C21 °C74 %1009.1 hPa10 kmEast (100°)5.6 km/hMostly Cloudy
5:00 AM25.6 °C21.1 °C71 %1009.5 hPa59.5 kmEast (100°)7.4 km/hClear
5:00 AM26 °C21 °C74 %1009.1 hPa10 kmEast (100°)7.4 km/hMostly Cloudy
5:30 AM26 °C21 °C74 %1009.1 hPa10 kmEast (100°)7.4 km/h
6:00 AM26 °C21 °C74 %1010.2 hPa10 kmEast (90°)5.6 km/hMostly Cloudy
6:30 AM26 °C21 °C74 %1010.2 hPa10 kmVariable5.6 km/hMostly Cloudy
7:00 AM26 °C22 °C78 %1010.2 hPa10 kmEast (90°)7.4 km/hMostly Cloudy
7:30 AM27 °C23 °C79 %1010.2 hPa10 kmEast (100°)5.6 km/hScattered Clouds
8:00 AM28.9 °C21.7 °C57 %1010.5 hPa25.7 kmNE (40°)10.8 km/hPartly Cloudy
8:00 AM29 °C22 °C66 %1010.2 hPa10 kmNE (40°)5.6 km/hScattered Clouds
8:30 AM30 °C22 °C62 %1010.2 hPa10 kmCalmScattered Clouds
9:00 AM29 °C22 °C66 %1010.2 hPa10 kmVariable3.7 km/hScattered Clouds
9:30 AM30 °C22 °C62 %1010.2 hPa10 kmNNE (20°)5.6 km/hMostly Cloudy
10:00 AM30 °C22 °C62 %1010.2 hPa10 kmVariable3.7 km/hMostly Cloudy
10:34 AM30 °C22 °C62 %1010.2 hPa10 kmVariable3.7 km/hMostly Cloudy
11:00 AM30 °C21.7 °C53 %1010.2 hPa25.7 kmNorth (350°)3.7 km/hPartly Cloudy
11:00 AM30 °C22 °C62 %1010.2 hPa10 kmVariable1.9 km/hMostly Cloudy
11:30 AM30 °C22 °C62 %1009.1 hPa10 kmVariable3.7 km/hMostly Cloudy
12:00 PM31 °C22 °C58 %1009.1 hPa10 kmVariable1.9 km/hMostly Cloudy
12:30 PM31 °C23 °C62 %1009.1 hPa10 kmNorth (10°)11.1 km/hScattered Clouds
1:00 PM31 °C22 °C58 %1008.1 hPa10 kmNorth (10°)5.6 km/hScattered Clouds
1:30 PM31 °C23 °C62 %1008.1 hPa10 kmNorth (10°)5.6 km/hScattered Clouds
2:00 PM30 °C23.3 °C59 %1008.8 hPa14.5 kmSSW (200°)11.1 km/hMostly Cloudy
2:00 PM30 °C23 °C66 %1008.1 hPa10 kmSSW (200°)11.1 km/hScattered Clouds
2:30 PM31 °C23 °C62 %1008.1 hPa10 kmVariable5.6 km/hScattered Clouds
3:00 PM29 °C23 °C70 %1008.1 hPa10 kmNorth (360°)25.9 km/hScattered Clouds
3:30 PM28 °C22 °C70 %1008.1 hPa10 kmNNE (20°)18.5 km/hScattered Clouds
4:00 PM28 °C22 °C70 %1008.1 hPa10 kmNE (40°)13 km/hMostly Cloudy
4:30 PM28 °C23 °C74 %1009.1 hPa10 kmNorth (360°)9.3 km/hScattered Clouds
5:00 PM27.8 °C22.2 °C63 %1009.5 hPa14.5 kmNNW (340°)14.8 km/hMostly Cloudy
5:00 PM28 °C22 °C70 %1009.1 hPa10 kmNNW (340°)14.8 km/hScattered Clouds
5:30 PM27 °C22 °C74 %1009.1 hPa10 kmNorth (10°)11.1 km/hScattered Clouds
6:00 PM27 °C21 °C70 %1009.1 hPa10 kmNNW (330°)5.6 km/hScattered Clouds
6:30 PM27 °C22 °C74 %1010.2 hPa10 kmNNW (340°)5.6 km/hMostly Cloudy
7:00 PM26 °C22 °C78 %1010.2 hPa10 kmVariable5.6 km/hMostly Cloudy
7:30 PM27 °C22 °C74 %1010.2 hPa10 kmNE (40°)11.1 km/hMostly Cloudy
8:00 PM26.1 °C21.7 °C72 %1010.5 hPa19.3 kmENE (70°)25.3 km/hPartly Cloudy
8:00 PM26 °C22 °C78 %1010.2 hPa10 kmENE (70°)13 km/hMostly Cloudy
8:30 PM26 °C22 °C78 %1010.2 hPa10 kmNE (50°)9.3 km/hMostly Cloudy
9:00 PM27 °C22 °C74 %1010.2 hPa10 kmENE (60°)7.4 km/hMostly Cloudy
9:30 PM27 °C20 °C65 %1010.2 hPa10 kmVariable3.7 km/hMostly Cloudy
10:00 PM27 °C20 °C65 %1010.2 hPa10 kmCalmScattered Clouds
10:30 PM26 °C21 °C74 %1010.2 hPa10 kmSouth (180°)5.6 km/hScattered Clouds
11:00 PM26.1 °C20.6 °C65 %1010.8 hPa19.3 kmSouth (190°)1.9 km/hScattered Clouds
11:00 PM26 °C21 °C74 %1010.2 hPa10 kmVariable1.9 km/hScattered Clouds
11:30 PM26 °C21 °C74 %1010.2 hPa10 kmVariable1.9 km/hScattered Clouds
Hourly data recorded from NTAA, located 0 kilometers away from Papeete, French Polynesia







STORIES FROM OUR PARTNERS